Location: Lafig�re
(44.4503°N, 4.0357°E)
Time: 22:06:48
(UTC+00:00)

Cosmos 1092 Rocket - Pass Details

Date: 29 January 2021
Orbit: 954 x 995 km, 83.0° (Epoch: 07 March)

Event Time Altitude Azimuth Distance (km) Brightness Sun altitude
Rises 05:20:34 0° 347° (NNW) 3,647 6.8 -18.8°
Reaches altitude 10° 05:23:06 10° 343° (NNW) 2,699 6.1 -18.4°
Maximum altitude 05:29:04 53° 268° (W) 1,168 4.0 -17.3°
Drops below altitude 10° 05:35:03 10° 194° (SSW) 2,704 6.3 -16.2°
Sets 05:37:36 0° 189° (S) 3,652 7.0 -15.8°
